Time_in_sec,Mx,My,Mz
1323442816.90566802,-0.37531406,-0.16221783,-0.87476289
1323442816.95354748,-0.37321967,-0.16079076,-0.87440181
1323442817.00470138,-0.37614477,-0.16355368,-0.87351865
1323442817.05352736,-0.37541363,-0.16074800,-0.87631541
1323442817.10549355,-0.37310660,-0.16139336,-0.87477541
1323442817.15255284,-0.37417588,-0.16113546,-0.87522018
1323442817.21355629,-0.37476519,-0.16305146,-0.87664735
1323442817.25354528,-0.37413913,-0.15886874,-0.87203336
1323442817.30554771,-0.37485206,-0.16368635,-0.87370265
1323442817.35353422,-0.37376356,-0.16090184,-0.87481505
1323442817.40463495,-0.37477461,-0.16053413,-0.87423313
1323442817.45354080,-0.37562060,-0.16208543,-0.87554896
1323442817.50556993,-0.37569329,-0.16390860,-0.87477165
1323442817.55264354,-0.37415481,-0.16295303,-0.87507796
1323442817.60155559,-0.37422153,-0.16066660,-0.87368959
1323442817.65345907,-0.37465510,-0.16101708,-0.87447917
1323442817.70857525,-0.37503004,-0.16159704,-0.87654430
1323442817.75363588,-0.37509423,-0.16160828,-0.87539536
1323442817.80153251,-0.37564003,-0.16244443,-0.87593156
1323442817.85356283,-0.37435997,-0.15991479,-0.87600732
1323442817.90541220,-0.37576929,-0.16234583,-0.87363470
1323442817.95356584,-0.37506306,-0.16379049,-0.87512195
1323442818.00155234,-0.37479132,-0.16125637,-0.87461299
1323442818.05352879,-0.37450549,-0.16087775,-0.87639254
1323442818.10864139,-0.37464973,-0.16271076,-0.87459481
1323442818.15350652,-0.37394702,-0.16270390,-0.87596464
1323442818.20151639,-0.37389249,-0.16210978,-0.87494153
1323442818.25354195,-0.37331113,-0.16137785,-0.87606716
1323442818.30128527,-0.37475914,-0.16259246,-0.87421751
1323442818.35328722,-0.37439245,-0.16148035,-0.87676615
1323442818.40149570,-0.37508237,-0.16318229,-0.87538344
1323442818.45250487,-0.37397730,-0.16064276,-0.87623709
1323442818.50551176,-0.37487501,-0.16259383,-0.87396783
1323442818.55349612,-0.37453830,-0.16113678,-0.87472796
1323442818.60456038,-0.37514603,-0.16256563,-0.87641573
1323442818.65251279,-0.37439972,-0.16051173,-0.87677348
1323442818.70153141,-0.37464738,-0.16232502,-0.87677413
1323442818.75251675,-0.37345555,-0.16052745,-0.87620920
1323442818.80548596,-0.37460500,-0.16305853,-0.87612635
1323442818.85302925,-0.37507427,-0.16062139,-0.87719393
1323442818.90463877,-0.37374279,-0.16100325,-0.87673378
1323442818.95352483,-0.37402719,-0.16087507,-0.87713450
1323442819.00554967,-0.37607452,-0.16267382,-0.87672210
1323442819.05355549,-0.37441358,-0.16063000,-0.87702948
1323442819.10502267,-0.37493551,-0.16267975,-0.87729961
1323442819.15365911,-0.37536252,-0.16194332,-0.87784052
1323442819.21358347,-0.37350726,-0.16051759,-0.87710845
1323442819.25253439,-0.37495324,-0.16003993,-0.87501472
1323442819.30500817,-0.37548670,-0.16182221,-0.87772018
1323442819.35351896,-0.37406787,-0.16135092,-0.87790155
1323442819.40565705,-0.37542111,-0.16171381,-0.87656498
1323442819.45355296,-0.37383619,-0.16231538,-0.87852210
1323442819.50565577,-0.37442029,-0.16268410,-0.87739927
1323442819.55286050,-0.37432644,-0.16171128,-0.87791318
1323442819.60551882,-0.37600932,-0.16181645,-0.87774897
1323442819.65287781,-0.37361059,-0.15953067,-0.87878573
1323442819.70565939,-0.37351203,-0.16184664,-0.87735528
1323442819.75282264,-0.37491974,-0.16183642,-0.87692064
1323442819.80486155,-0.37510505,-0.16339631,-0.87807202
1323442819.85354614,-0.37366787,-0.15976155,-0.87981153
1323442819.90555668,-0.37404561,-0.16038793,-0.87739503
1323442819.95264506,-0.37445012,-0.16096228,-0.87997401
1323442820.00548959,-0.37340069,-0.16123986,-0.87760955
1323442820.05274224,-0.37354937,-0.16109063,-0.88017964
1323442820.10169864,-0.37589657,-0.16070288,-0.88018352
1323442820.15521836,-0.37415195,-0.16193941,-0.87943846
1323442820.20454192,-0.37370828,-0.16195360,-0.87851769
1323442820.25354910,-0.37329897,-0.15964058,-0.88017625
1323442820.30552149,-0.37514743,-0.16266282,-0.87871981
1323442820.35250926,-0.37429819,-0.16084687,-0.87958235
1323442820.40187478,-0.37429729,-0.16096795,-0.87958145
1323442820.45353651,-0.37403008,-0.16203663,-0.88186383
1323442820.50168753,-0.37495950,-0.16243336,-0.87768680
1323442820.55259562,-0.37348107,-0.16134545,-0.87902164
1323442820.60156441,-0.37417310,-0.16108906,-0.87970179
1323442820.65366983,-0.37346110,-0.16035856,-0.88082021
1323442820.70550179,-0.37404254,-0.16205771,-0.87981570
1323442820.75658154,-0.37468702,-0.16154511,-0.88190347
1323442820.80174613,-0.37400186,-0.16158184,-0.87904865
1323442820.85352349,-0.37302256,-0.16095281,-0.88232833
1323442820.90553451,-0.37484428,-0.15996684,-0.88217950
1323442820.95350742,-0.37451762,-0.16179575,-0.88125217
1323442821.00532556,-0.37431216,-0.16193235,-0.87995946
1323442821.05352831,-0.37403452,-0.16046402,-0.88174731
1323442821.10553527,-0.37410426,-0.16071600,-0.88072503
1323442821.15376401,-0.37392291,-0.16157344,-0.87994063
1323442821.20175052,-0.37569699,-0.15936404,-0.88107836
1323442821.25344610,-0.37448117,-0.16202104,-0.88291311
1323442821.30556059,-0.37430122,-0.16338529,-0.87994850
1323442821.35352588,-0.37471089,-0.16033152,-0.88216960
1323442821.40155602,-0.37367767,-0.16070345,-0.88236612
1323442821.45253396,-0.37344682,-0.16057962,-0.88286650
1323442821.50152349,-0.37747845,-0.16177107,-0.88064700
1323442821.55255580,-0.37365177,-0.16022478,-0.88185596
1323442821.60171342,-0.37549403,-0.16141117,-0.88233298
1323442821.65255713,-0.37430415,-0.16033866,-0.88189107
1323442821.70508313,-0.37379721,-0.16022052,-0.88212007
1323442821.75393605,-0.37159997,-0.15999863,-0.88238490
1323442821.80502963,-0.37439272,-0.16397236,-0.88161385
1323442821.85353637,-0.37343660,-0.15997705,-0.88261414
1323442821.90453887,-0.37384537,-0.16166219,-0.88313675
1323442821.95316815,-0.37311071,-0.16071767,-0.88156658
1323442822.00551820,-0.37672341,-0.16017899,-0.88317770
1323442822.05307865,-0.37228647,-0.15950148,-0.88293839
1323442822.10553241,-0.37403384,-0.16251953,-0.88198864
1323442822.15352106,-0.37614280,-0.16200936,-0.88236439
1323442822.20556307,-0.37337941,-0.16071337,-0.88170946
1323442822.25352788,-0.37384900,-0.16117787,-0.88314044
1323442822.31288743,-0.37413403,-0.16264480,-0.88148105
1323442822.35357833,-0.37328207,-0.15698390,-0.87955409
1323442822.41544366,-0.37434483,-0.16081452,-0.88265812
1323442822.45362711,-0.37472883,-0.15962614,-0.88012695
1323442822.50214601,-0.37330696,-0.16082463,-0.88272899
1323442822.55249357,-0.37458226,-0.16202523,-0.88240647
1323442822.60482216,-0.37461352,-0.16081023,-0.88280100
1323442822.65354514,-0.37414342,-0.15971784,-0.88355118
1323442822.70551944,-0.37410712,-0.16131999,-0.88084888
1323442822.75258017,-0.37315494,-0.15974200,-0.88221622
1323442822.81351662,-0.37395248,-0.16156781,-0.88045448
1323442822.85256147,-0.37458399,-0.15660767,-0.87950039
1323442822.90453148,-0.37282735,-0.16169198,-0.88128793
1323442822.95350218,-0.37443218,-0.16166766,-0.88201666
1323442823.00552034,-0.37480554,-0.16021603,-0.88153541
1323442823.05354095,-0.37363610,-0.16034867,-0.88159817
1323442823.10550904,-0.37363902,-0.16191986,-0.88184315
1323442823.15365720,-0.37338397,-0.16010799,-0.88171405
1323442823.21350622,-0.37411439,-0.16035137,-0.88085622
1323442823.25353241,-0.37386778,-0.15979384,-0.87649322
1323442823.30552459,-0.37381807,-0.16108634,-0.88032246
1323442823.35352731,-0.37432733,-0.16118057,-0.88239849
1323442823.40168190,-0.37425983,-0.16034710,-0.88112032
1323442823.45652008,-0.37275496,-0.16277045,-0.88242865
1323442823.50551939,-0.37446934,-0.15938686,-0.88011438
1323442823.55348969,-0.37349167,-0.16119906,-0.88145608
1323442823.60174561,-0.37398645,-0.15998957,-0.88085175
1323442823.65349293,-0.37346676,-0.16156653,-0.88106793
1323442823.70187640,-0.37635139,-0.16117020,-0.88135755
1323442823.75354457,-0.37237799,-0.16049820,-0.88011938
1323442823.80564189,-0.37276357,-0.16134143,-0.88013458
1323442823.85352182,-0.37456819,-0.15997255,-0.88190824
1323442823.90549660,-0.37294596,-0.16133013,-0.88104099
1323442823.95355201,-0.37346110,-0.16035856,-0.88082021
1323442824.00187731,-0.37312955,-0.15989120,-0.87952489
1323442824.05255604,-0.37455899,-0.16021611,-0.88177794
1323442824.10554338,-0.37369093,-0.15963626,-0.88019782
1323442824.15166998,-0.37243617,-0.16060801,-0.88114613
1323442824.20557046,-0.37428847,-0.16046254,-0.88163322
1323442824.25353479,-0.37630150,-0.16093789,-0.88046020
1323442824.31319380,-0.37418202,-0.16256167,-0.87777114
1323442824.35599184,-0.37485039,-0.15662730,-0.87733823
1323442824.41352201,-0.37407938,-0.16108346,-0.88033688
1323442824.45354724,-0.37364399,-0.15676697,-0.87675869
1323442824.50464463,-0.37497911,-0.16010898,-0.88000923
1323442824.55350566,-0.37234774,-0.16255935,-0.87984693
1323442824.60557890,-0.37510988,-0.16107476,-0.88013756
1323442824.65377569,-0.37535256,-0.15962458,-0.87964910
1323442824.71310830,-0.37417209,-0.16024292,-0.87957972
1323442824.75366640,-0.37594718,-0.15928930,-0.87635517
1323442824.80554581,-0.37291187,-0.16235079,-0.87603819
1323442824.85257888,-0.37299615,-0.16025588,-0.87951493
1323442824.90455675,-0.37355584,-0.16121030,-0.88030714
1323442824.95350838,-0.37264961,-0.16206510,-0.88050729
1323442825.00514150,-0.37655333,-0.16289476,-0.87828332
1323442825.05283761,-0.37482134,-0.16105936,-0.88191438
1323442825.10497761,-0.37377840,-0.16145661,-0.87967741
1323442825.15279603,-0.37285641,-0.16146810,-0.87949860
1323442825.20571971,-0.37386918,-0.15989102,-0.87879735
1323442825.25304055,-0.37394577,-0.15951370,-0.88008469
1323442825.30565214,-0.37441561,-0.16232227,-0.87727356
1323442825.35252357,-0.37389326,-0.16061185,-0.87930566
1323442825.40482473,-0.37365785,-0.16109341,-0.87980145
1323442825.45353293,-0.37427694,-0.16073002,-0.87919790
1323442825.51353955,-0.37383801,-0.16207324,-0.87852395
1323442825.55366802,-0.37420064,-0.15980078,-0.87548721
1323442825.60573101,-0.37409040,-0.16059774,-0.88046902
1323442825.65253210,-0.37436014,-0.16143958,-0.88073391
1323442825.70476198,-0.37478754,-0.16036384,-0.87897253
1323442825.75279546,-0.37433696,-0.16059768,-0.88022649
1323442825.80463934,-0.37398720,-0.16255188,-0.87891287
1323442825.85356116,-0.37398839,-0.16071463,-0.88097471
1323442825.90559101,-0.37405396,-0.16082303,-0.88212991
1323442825.95275760,-0.37239823,-0.15976892,-0.88038182
1323442826.00556898,-0.37403670,-0.16353314,-0.87762815
1323442826.05267572,-0.37428948,-0.16130869,-0.88175529
1323442826.10477090,-0.37365127,-0.16000652,-0.87955278
1323442826.15524459,-0.37532553,-0.16154073,-0.88168257
1323442826.20466137,-0.37457883,-0.16023579,-0.87985826
1323442826.25356412,-0.37289959,-0.15964630,-0.88002616
1323442826.31252623,-0.37500939,-0.16266567,-0.87858415
1323442826.35263395,-0.37351242,-0.15688948,-0.87675053
1323442826.41353226,-0.37476596,-0.16155353,-0.88101149
1323442826.45263195,-0.37644520,-0.15793483,-0.87805682
1323442826.50491047,-0.37355089,-0.16256465,-0.87812048
1323442826.55352974,-0.37434718,-0.16120024,-0.88047880
1323442826.60177732,-0.37334290,-0.16038109,-0.87876487
1323442826.65359211,-0.37305334,-0.15951955,-0.88041967
1323442826.70451021,-0.37275711,-0.16122176,-0.88000703
1323442826.75339341,-0.37424597,-0.16022885,-0.88086432
1323442826.81351304,-0.37493098,-0.16328514,-0.87729502
1323442826.85359001,-0.37573141,-0.15785612,-0.87468904
1323442826.90154314,-0.37229854,-0.16027153,-0.87870818
1323442826.95352435,-0.37262687,-0.16088386,-0.87769759
1323442827.00580335,-0.37354907,-0.16280681,-0.87811869
1323442827.05253005,-0.37270075,-0.16086979,-0.87898213
1323442827.11351109,-0.37383556,-0.16072029,-0.88058215
1323442827.15253830,-0.37299910,-0.15761890,-0.87697315
1323442827.20151019,-0.37377828,-0.16048940,-0.87955630
1323442827.25322604,-0.37350503,-0.16109908,-0.87940890
1323442827.30127883,-0.37472025,-0.16146481,-0.87793666
1323442827.35352445,-0.37417775,-0.16145088,-0.87982750
1323442827.40467000,-0.37443998,-0.16132693,-0.87984282
1323442827.45354128,-0.37204462,-0.16027300,-0.87882227
1323442827.51314592,-0.37532657,-0.16279650,-0.87732029
1323442827.55364704,-0.37634462,-0.15855852,-0.87638229
1323442827.61352491,-0.37254390,-0.16210872,-0.87640381
1323442827.65645909,-0.37434214,-0.15737920,-0.87538427
1323442827.70564580,-0.37240806,-0.16112046,-0.87845206
1323442827.75352454,-0.37390348,-0.16121443,-0.87955803
1323442827.80556655,-0.37461308,-0.16100161,-0.87601346
1323442827.85254264,-0.37464768,-0.16060884,-0.87883508
1323442827.91366291,-0.37344828,-0.16149607,-0.87620187
1323442827.95369411,-0.37373489,-0.15616858,-0.87599969
1323442828.00561595,-0.37564254,-0.16435495,-0.87847888
1323442828.05352974,-0.37338197,-0.15882535,-0.87698561
1323442828.10456753,-0.37491819,-0.16036239,-0.87897974
1323442828.15470886,-0.37398297,-0.16185072,-0.87648487
1323442828.20198679,-0.37373498,-0.16134398,-0.87890762
1323442828.25352979,-0.37321031,-0.15965746,-0.87863475
1323442828.30463314,-0.37493077,-0.16135070,-0.87705272
1323442828.35249376,-0.37478027,-0.16133246,-0.87896520
1323442828.41366601,-0.37322986,-0.16098370,-0.87913847
1323442828.45445943,-0.37580994,-0.15820386,-0.87609935
1323442828.50188231,-0.37524197,-0.16158012,-0.87796450
1323442828.55352283,-0.37377203,-0.16230416,-0.87967104
1323442828.60552645,-0.37443259,-0.16132833,-0.87971437
1323442828.65351534,-0.37414747,-0.15889420,-0.88125259
1323442828.70453429,-0.37513104,-0.16022439,-0.88040090
1323442828.75360441,-0.37355775,-0.16193536,-0.88043010
1323442828.81351423,-0.37308827,-0.16243806,-0.87912029
1323442828.85252380,-0.37385693,-0.15759617,-0.87830096
1323442828.90552926,-0.37402633,-0.16155373,-0.88173902
1323442828.95353341,-0.37379640,-0.16130881,-0.88224030
1323442829.01076603,-0.37419254,-0.16144806,-0.88008440
1323442829.05349898,-0.37473723,-0.16047087,-0.88037747
1323442829.10454988,-0.37442479,-0.16166908,-0.88188815
1323442829.16564345,-0.37293380,-0.16000250,-0.88066572
1323442829.20154643,-0.37448198,-0.15672456,-0.88000607
1323442829.26554251,-0.37409770,-0.15962912,-0.88047636
1323442829.30558777,-0.37451982,-0.15659644,-0.88064933
1323442829.35354519,-0.37295100,-0.16094299,-0.88334876
1323442829.40169001,-0.37419343,-0.16132699,-0.88008535
1323442829.45404291,-0.37247676,-0.16011666,-0.88179213
1323442829.50555515,-0.37470454,-0.16117907,-0.88216317
1323442829.55557036,-0.37448379,-0.16069059,-0.88279474
1323442829.60165286,-0.37460443,-0.16202101,-0.88279182
1323442829.65571976,-0.37344873,-0.16130468,-0.88298947
1323442829.70562410,-0.37404394,-0.16215488,-0.88211983
1323442829.75356770,-0.37482405,-0.16069613,-0.88191712
1323442829.80552077,-0.37386289,-0.16129614,-0.88339645
1323442829.85353374,-0.37296659,-0.15985188,-0.88348550
1323442829.91352940,-0.37416458,-0.15886748,-0.88381451
1323442829.95254755,-0.37383941,-0.15755259,-0.88252562
1323442830.00149822,-0.37465423,-0.16128609,-0.88356805
1323442830.05351734,-0.37399200,-0.15982068,-0.88546276
1323442830.10558033,-0.37415740,-0.16080332,-0.88392830
1323442830.16152549,-0.37445474,-0.16091448,-0.88458407
1323442830.20552206,-0.37381724,-0.15755682,-0.88214028
1323442830.25353980,-0.37438771,-0.16029926,-0.88560915
1323442830.31353784,-0.37534264,-0.16151401,-0.88424450
1323442830.35411000,-0.37270769,-0.15658988,-0.88311046
1323442830.41351843,-0.37533644,-0.15967816,-0.88617796
1323442830.45355678,-0.37586191,-0.15606819,-0.88354385
1323442830.50355911,-0.37392765,-0.16249284,-0.88467181
1323442830.55354452,-0.37362501,-0.16042475,-0.88595039
1323442830.60167384,-0.37431213,-0.16152272,-0.88444382
1323442830.65359664,-0.37458733,-0.16163810,-0.88471425
1323442830.70511198,-0.37334338,-0.16018970,-0.88555247
1323442830.75365734,-0.37357005,-0.16016996,-0.88722956
1323442830.80552578,-0.37583846,-0.16115065,-0.88376224
1323442830.85249352,-0.37570453,-0.16088744,-0.88593346
1323442830.90453744,-0.37363321,-0.15933506,-0.88595861
1323442830.95352292,-0.37434703,-0.15982340,-0.88484204
1323442831.00452614,-0.37420261,-0.16067380,-0.88470000
1323442831.05352497,-0.37394249,-0.15883942,-0.88674742
1323442831.10555506,-0.37547094,-0.16112684,-0.88643104
1323442831.15366149,-0.37511906,-0.16042155,-0.88475221
1323442831.21351838,-0.37344822,-0.16067681,-0.88517058
1323442831.25366402,-0.37453985,-0.15814091,-0.88345623
1323442831.30246377,-0.37539396,-0.16225311,-0.88296163
1323442831.35491157,-0.37529543,-0.16050884,-0.88783425
1323442831.40567946,-0.37305290,-0.15944925,-0.88720626
1323442831.45359182,-0.37396711,-0.16018814,-0.88507462
1323442831.50554514,-0.37352079,-0.16153276,-0.88427216
1323442831.55366683,-0.37381011,-0.16005023,-0.88685954
1323442831.61351109,-0.37406388,-0.16273214,-0.88480562
1323442831.65252709,-0.37374738,-0.15633762,-0.88304144
1323442831.70169973,-0.37289277,-0.16042355,-0.88680637
1323442831.75354862,-0.37296131,-0.16251278,-0.88372225
1323442831.80474019,-0.37613297,-0.16065782,-0.88429415
1323442831.85354710,-0.37501067,-0.16138598,-0.88525152
1323442831.91295505,-0.37491977,-0.16198437,-0.88601047
1323442831.95358038,-0.37409151,-0.15779327,-0.88240975
1323442832.00154448,-0.37385994,-0.15972495,-0.88315141
1323442832.05256081,-0.37588266,-0.16017498,-0.88441187
1323442832.10474944,-0.37548441,-0.16199405,-0.88450497
1323442832.15359712,-0.37411365,-0.16199723,-0.88558191
1323442832.20161510,-0.37448326,-0.16006270,-0.88497585
1323442832.25356746,-0.37302700,-0.15938021,-0.88221174
1323442832.30156422,-0.37362838,-0.16165662,-0.88389307
1323442832.35259032,-0.37428248,-0.16056113,-0.88380891
1323442832.41374660,-0.37392014,-0.16152704,-0.88442224
1323442832.45257711,-0.37408775,-0.15731037,-0.88228494
1323442832.50484562,-0.37430346,-0.16239417,-0.88213241
1323442832.55352521,-0.37333751,-0.16166514,-0.88336486
1323442832.60457206,-0.37495685,-0.16335417,-0.88228953
1323442832.65354538,-0.37344772,-0.16045855,-0.88286740
1323442832.71352339,-0.37434027,-0.16141991,-0.88265353
1323442832.75466824,-0.37525472,-0.15988503,-0.87797737
1323442832.80152297,-0.37394699,-0.16229427,-0.88044900
1323442832.85355926,-0.37240702,-0.15986468,-0.88281441
1323442832.90470052,-0.37315676,-0.15949985,-0.88221806
1323442832.96235347,-0.37518820,-0.15948807,-0.88130558
1323442833.00464249,-0.37473327,-0.15805353,-0.88001043
1323442833.05271196,-0.37437662,-0.16022740,-0.88087153
1323442833.10452294,-0.37469441,-0.16154370,-0.88203198
1323442833.15464330,-0.37364075,-0.16071050,-0.88172388
1323442833.21359181,-0.37449443,-0.16095383,-0.88074476
1323442833.25253391,-0.37630999,-0.15854165,-0.87804502
1323442833.30467939,-0.37408778,-0.16192819,-0.88058740
1323442833.36150742,-0.37346405,-0.16192976,-0.88106519
1323442833.40154505,-0.37289566,-0.15722898,-0.87965912
1323442833.45402479,-0.37441811,-0.15961497,-0.88151836
1323442833.50552177,-0.37558648,-0.16228680,-0.87951493
1323442833.55408955,-0.37366757,-0.16106810,-0.88223493
1323442833.60149455,-0.37379590,-0.16109057,-0.87993711
1323442833.65251660,-0.37359369,-0.16108218,-0.88095039
1323442833.70150995,-0.37551299,-0.16155192,-0.88041240
1323442833.75353074,-0.37462991,-0.15863083,-0.88281751
1323442833.80504346,-0.37379235,-0.16254209,-0.88005453
1323442833.85366797,-0.37339419,-0.16071056,-0.88196635
1323442833.90552998,-0.37499622,-0.16008225,-0.88257116
1323442833.95445323,-0.37317073,-0.16058533,-0.88259518
1323442834.00552344,-0.37442955,-0.16299811,-0.88213503
1323442834.06535745,-0.37406772,-0.15997408,-0.88226479
1323442834.10464740,-0.37354013,-0.15671638,-0.88174689
1323442834.15350270,-0.37304664,-0.16167365,-0.88283664
1323442834.20463824,-0.37378290,-0.16044159,-0.88416636
1323442834.25471854,-0.37432680,-0.16055268,-0.88457966
1323442834.30488253,-0.37492356,-0.16287690,-0.88165092
1323442834.35367393,-0.37573177,-0.16090570,-0.88414222
1323442834.41382504,-0.37300038,-0.16095704,-0.88194293
1323442834.45495629,-0.37468114,-0.15840273,-0.88141352
1323442834.50566554,-0.37496129,-0.16178156,-0.88217300
1323442834.55353975,-0.37315735,-0.16068532,-0.88464236
1323442834.60467458,-0.37405285,-0.16321787,-0.88467354
1323442834.65354133,-0.37403321,-0.16092443,-0.88404864
1323442834.70551968,-0.37469843,-0.16031043,-0.88421768
1323442834.76550150,-0.37223071,-0.16033497,-0.88433778
1323442834.80547881,-0.37293410,-0.15828632,-0.88272667
